sat.trackr.live / text

‹ back to catalog

STARLINK-5098

NORAD 54013 · 2022-125BB

PAYLOAD ACTIVE UNKNOWN

§ Identity

Operator
Country
US
Launch date
2022-10-05
Launch site
AFWTR
Launch vehicle
Mass (kg)
RCS (m²)

Purposes: comms

External: N2YO · Heavens-Above · Gunter

§ Orbital elements

Epoch: 2026-09-20T16:00:01.999584Z

Period
93.85 min
Inclination
53.1597°
Eccentricity
0.0001237
Mean motion
15.34366066 rev/d
Perigee alt
462.0 km
Apogee alt
463.7 km
Semi-major
6,840.9 km
B*
1.0723e-4
RAAN
36.7685°
Arg perigee
86.7267°
Mean anomaly
166.3172°
Rev number
588

§ Raw data

STARLINK-50981 54013U 22125BB  26263.66668981  .00003245  00000+0  10723-3 0  99932 54013  53.1597  36.7685 0001237  86.7267 166.3172 15.34366066  5886

JSON: /api/v1/satellites/54013 · /tle

For live sub-satellite position, see the globe view (requires WebGL).

§ Visibility from observer

Set your observer location to see the next 7 days of passes ≥ 10°. The values pass through the URL so the page stays shareable.

No JS? Fill the form by hand. The geolocation button needs JavaScript.